When you browse on this site, cookies collect data to enhance your experience and personalize the content and advertising you see.
Visit our Privacy Policy to learn more. By continuing to use the site, you agree to this use of cookies and data.
EN

Hourly Weather Maun

Today, 13 August, Thursday

Time Temperature Precipitation Wind Pressure Humidity
00:00 +20°C° 0 mm 1 mps 682 mmHg 19%
01:00 +19°C° 0 mm 1 mps 682 mmHg 19%
02:00 +18°C° 0 mm 1 mps 682 mmHg 19%
03:00 +18°C° 0 mm 1 mps 682 mmHg 19%
04:00 +16°C° 0 mm 1 mps 682 mmHg 20%
05:00 +16°C° 0 mm 1 mps 682 mmHg 20%
06:00 +18°C° 0 mm 1 mps 683 mmHg 20%
07:00 +17°C° 0 mm 2 mps 683 mmHg 19%
08:00 +18°C° 0 mm 2 mps 684 mmHg 18%
09:00 +23°C° 0 mm 2 mps 685 mmHg 15%
10:00 +27°C° 0 mm 2 mps 686 mmHg 12%
11:00 +30°C° 0 mm 2 mps 686 mmHg 9%
12:00 +31°C° 0 mm 2 mps 686 mmHg 9%
13:00 +34°C° 0 mm 3 mps 685 mmHg 8%
14:00 +35°C° 0 mm 3 mps 684 mmHg 8%
15:00 +34°C° 0 mm 3 mps 684 mmHg 8%
16:00 +34°C° 0 mm 4 mps 684 mmHg 8%
17:00 +33°C° 0 mm 4 mps 683 mmHg 8%
18:00 +29°C° 0 mm 3 mps 683 mmHg 11%
19:00 +26°C° 0 mm 3 mps 683 mmHg 13%
20:00 +23°C° 0 mm 2 mps 683 mmHg 15%
21:00 +21°C° 0 mm 2 mps 683 mmHg 16%
22:00 +20°C° 0 mm 2 mps 683 mmHg 16%
23:00 +18°C° 0 mm 2 mps 683 mmHg 17%

Tomorrow, 14 August, Friday

Time Temperature Precipitation Wind Pressure Humidity
00:00 +18°C° 0 mm 3 mps 683 mmHg 17%
01:00 +17°C° 0 mm 3 mps 683 mmHg 17%
02:00 +17°C° 0 mm 3 mps 683 mmHg 17%
03:00 +16°C° 0 mm 3 mps 683 mmHg 17%
04:00 +14°C° 0 mm 3 mps 682 mmHg 17%
05:00 +13°C° 0 mm 3 mps 682 mmHg 17%
06:00 +14°C° 0 mm 3 mps 683 mmHg 16%
07:00 +16°C° 0 mm 3 mps 684 mmHg 15%
08:00 +17°C° 0 mm 4 mps 684 mmHg 14%
09:00 +21°C° 0 mm 4 mps 685 mmHg 12%
10:00 +26°C° 0 mm 4 mps 685 mmHg 10%
11:00 +30°C° 0 mm 5 mps 686 mmHg 8%
12:00 +32°C° 0 mm 4 mps 685 mmHg 7%
13:00 +33°C° 0 mm 4 mps 684 mmHg 7%
14:00 +34°C° 0 mm 3 mps 683 mmHg 7%
15:00 +34°C° 0 mm 3 mps 683 mmHg 7%
16:00 +32°C° 0 mm 2 mps 682 mmHg 7%
17:00 +32°C° 0 mm 2 mps 682 mmHg 7%
18:00 +29°C° 0 mm 2 mps 681 mmHg 10%
19:00 +25°C° 0 mm 2 mps 681 mmHg 12%
20:00 +21°C° 0 mm 2 mps 680 mmHg 14%
21:00 +20°C° 0 mm 2 mps 680 mmHg 15%
22:00 +19°C° 0 mm 2 mps 681 mmHg 17%
23:00 +18°C° 0 mm 2 mps 681 mmHg 18%

Day after tomorrow, 15 August, Saturday

Time Temperature Precipitation Wind Pressure Humidity
00:00 +17°C° 0 mm 2 mps 681 mmHg 19%
01:00 +16°C° 0 mm 2 mps 680 mmHg 20%
02:00 +16°C° 0 mm 2 mps 680 mmHg 21%
03:00 +15°C° 0 mm 2 mps 680 mmHg 22%
04:00 +15°C° 0 mm 2 mps 680 mmHg 24%
05:00 +14°C° 0 mm 2 mps 679 mmHg 25%
06:00 +15°C° 0 mm 2 mps 680 mmHg 24%
07:00 +16°C° 0 mm 3 mps 681 mmHg 23%
08:00 +17°C° 0 mm 3 mps 681 mmHg 23%
09:00 +21°C° 0 mm 4 mps 682 mmHg 18%
10:00 +26°C° 0 mm 4 mps 682 mmHg 14%
11:00 +30°C° 0 mm 5 mps 683 mmHg 10%
12:00 +32°C° 0 mm 4 mps 682 mmHg 9%
13:00 +34°C° 0 mm 3 mps 682 mmHg 9%
14:00 +35°C° 0 mm 3 mps 681 mmHg 8%
15:00 +35°C° 0 mm 2 mps 680 mmHg 8%
16:00 +35°C° 0 mm 2 mps 680 mmHg 7%
17:00 +33°C° 0 mm 1 mps 679 mmHg 7%
18:00 +30°C° 0 mm 1 mps 679 mmHg 10%
19:00 +27°C° 0 mm 1 mps 679 mmHg 12%
20:00 +23°C° 0 mm 1 mps 678 mmHg 14%
21:00 +23°C° 0 mm 2 mps 679 mmHg 15%
22:00 +21°C° 0 mm 2 mps 679 mmHg 16%
23:00 +20°C° 0 mm 2 mps 679 mmHg 17%

16 August, Sunday

Time Temperature Precipitation Wind Pressure Humidity
00:00 +20°C° 0 mm 2 mps 678 mmHg 17%
01:00 +19°C° 0 mm 2 mps 678 mmHg 18%
02:00 +19°C° 0 mm 2 mps 678 mmHg 18%
03:00 +18°C° 0 mm 2 mps 678 mmHg 19%
04:00 +17°C° 0 mm 2 mps 678 mmHg 21%
05:00 +16°C° 0 mm 2 mps 677 mmHg 22%
06:00 +17°C° 0 mm 2 mps 678 mmHg 21%
07:00 +18°C° 0 mm 1 mps 679 mmHg 20%
08:00 +18°C° 0 mm 1 mps 680 mmHg 20%
09:00 +23°C° 0 mm 1 mps 681 mmHg 16%
10:00 +27°C° 0 mm 2 mps 682 mmHg 13%
11:00 +31°C° 0 mm 2 mps 683 mmHg 10%
12:00 +32°C° 0 mm 2 mps 682 mmHg 9%
13:00 +35°C° 0 mm 3 mps 681 mmHg 8%
14:00 +36°C° 0 mm 3 mps 681 mmHg 7%
15:00 +36°C° 0 mm 3 mps 680 mmHg 7%
16:00 +35°C° 0 mm 3 mps 680 mmHg 7%
17:00 +35°C° 0 mm 3 mps 680 mmHg 7%
18:00 +31°C° 0 mm 3 mps 680 mmHg 9%
19:00 +27°C° 0 mm 4 mps 680 mmHg 11%
20:00 +23°C° 0 mm 4 mps 680 mmHg 13%
21:00 +22°C° 0 mm 4 mps 680 mmHg 14%
22:00 +20°C° 0 mm 3 mps 680 mmHg 15%
23:00 +19°C° 0 mm 3 mps 680 mmHg 16%

17 August, Monday

Time Temperature Precipitation Wind Pressure Humidity
00:00 +18°C° 0 mm 3 mps 680 mmHg 17%
01:00 +17°C° 0 mm 4 mps 680 mmHg 19%
02:00 +15°C° 0 mm 4 mps 680 mmHg 20%
03:00 +14°C° 0 mm 4 mps 680 mmHg 22%
04:00 +14°C° 0 mm 4 mps 680 mmHg 24%
05:00 +13°C° 0 mm 3 mps 679 mmHg 26%
06:00 +13°C° 0 mm 4 mps 680 mmHg 25%
07:00 +14°C° 0 mm 4 mps 681 mmHg 24%
08:00 +15°C° 0 mm 5 mps 681 mmHg 23%
09:00 +20°C° 0 mm 4 mps 682 mmHg 18%
10:00 +25°C° 0 mm 4 mps 682 mmHg 14%
11:00 +29°C° 0 mm 4 mps 682 mmHg 10%
12:00 +31°C° 0 mm 3 mps 682 mmHg 9%
13:00 +34°C° 0 mm 3 mps 681 mmHg 8%
14:00 +36°C° 0 mm 3 mps 680 mmHg 7%
15:00 +36°C° 0 mm 2 mps 680 mmHg 7%
16:00 +35°C° 0 mm 1 mps 680 mmHg 6%
17:00 +35°C° 0 mm 1 mps 679 mmHg 6%
18:00 +31°C° 0 mm 1 mps 679 mmHg 8%
19:00 +28°C° 0 mm 1 mps 679 mmHg 10%
20:00 +24°C° 0 mm 1 mps 679 mmHg 12%
21:00 +23°C° 0 mm 1 mps 679 mmHg 13%
22:00 +21°C° 0 mm 2 mps 679 mmHg 14%
23:00 +20°C° 0 mm 2 mps 679 mmHg 15%

18 August, Tuesday

Time Temperature Precipitation Wind Pressure Humidity
00:00 +19°C° 0 mm 2 mps 679 mmHg 30%
01:00 +17°C° 0 mm 3 mps 679 mmHg 44%
02:00 +16°C° 0 mm 3 mps 678 mmHg 59%
03:00 +14°C° 0 mm 3 mps 678 mmHg 64%
04:00 +13°C° 0 mm 3 mps 678 mmHg 70%
05:00 +13°C° 0 mm 3 mps 678 mmHg 76%
06:00 +14°C° 0 mm 3 mps 679 mmHg 61%
07:00 +16°C° 0 mm 3 mps 680 mmHg 47%
08:00 +17°C° 0 mm 4 mps 681 mmHg 33%
09:00 +21°C° 0 mm 3 mps 681 mmHg 28%
10:00 +26°C° 0 mm 3 mps 682 mmHg 23%
11:00 +29°C° 0 mm 3 mps 683 mmHg 18%
12:00 +31°C° 0 mm 3 mps 682 mmHg 16%
13:00 +34°C° 0 mm 2 mps 681 mmHg 14%
14:00 +36°C° 0 mm 2 mps 681 mmHg 11%
15:00 +36°C° 0 mm 2 mps 680 mmHg 11%
16:00 +35°C° 0 mm 1 mps 680 mmHg 11%
17:00 +35°C° 0 mm 1 mps 680 mmHg 10%
18:00 +32°C° 0 mm 2 mps 680 mmHg 14%
19:00 +29°C° 0 mm 3 mps 680 mmHg 17%
20:00 +26°C° 0 mm 4 mps 680 mmHg 20%
21:00 +25°C° 0 mm 5 mps 680 mmHg 26%
22:00 +23°C° 0 mm 5 mps 680 mmHg 32%
23:00 +22°C° 0 mm 6 mps 681 mmHg 39%
Show more